[[{"header":{"parameterUnit":"m.s-1","parameterCategory":1,"la1":30.2991,"la2":30.254,"lo1":-89.0895,"lo2":-89.0444,"dy":0.0017,"dx":0.0017,"nx":28,"ny":28,"refTime":"2025-01-22T03:00:00:Z","depth":0,"parameterNumber":2,"parameterNumberName":"U-component_of_WINDS"},"data":[0,0,0,0,0,0,0,0,0,0,0,0,0,0,0,0,0,0,0,0,0,0,0,0,0,0,0,0,0,0,0,0,0,0,0,0,0,0,0,0,0,0,0,0,0,0,0,0,0,0,0,0,0,0,0,0,0,0,-3.1428,-3.1428,0,-3.1488,-3.1489,-3.149,-3.1398,-3.1395,-3.1392,-3.1388,-3.1454,-3.1458,-3.1463,0,0,0,0,0,0,0,0,0,0,0,0,0,-3.1234,-3.1238,-3.1428,-3.1428,-3.1429,-3.1488,-3.1489,-3.149,-3.1399,-3.1395,-3.1391,-3.1387,-3.1452,-3.1458,-3.1463,0,0,0,0,0,0,0,0,0,0,0,0,0,-3.1309,-3.1239,-3.1427,-3.1391,-3.1388,-3.1488,-3.1489,-3.149,-3.1399,-3.1395,-3.139,-3.1385,-3.145,-3.1457,-3.1464,-3.1604,0,0,-3.1486,-3.1489,0,0,0,0,0,0,0,0,-3.1305,-3.1316,-3.1395,-3.1393,-3.139,-3.1431,-3.1445,-3.1529,-3.1401,-3.1395,-3.1388,-3.1383,-3.145,-3.1457,-3.1479,-3.1607,-3.161,-3.1486,-3.1491,-3.1494,-3.1496,0,0,0,0,0,0,0,-3.13,-3.1313,-3.1452,-3.1396,-3.1394,-3.1372,-3.1377,-3.146,-3.1449,-3.1395,-3.1389,-3.1397,-3.1448,-3.1472,-3.148,-3.1611,-3.1486,-3.1492,-3.1497,-3.15,-3.1858,-3.1863,0,0,0,0,0,0,-3.1299,-3.1309,-3.145,-3.1453,-3.1335,-3.1379,-3.1385,-3.1423,-3.1448,-3.1447,-3.1401,-3.1392,-3.1463,-3.1472,-3.1482,-3.1648,-3.1494,-3.15,-3.1504,-3.1853,-3.1859,-3.1865,0,0,0,0,0,0,-3.1295,-3.1312,-3.1447,-3.138,-3.1395,-3.1387,-3.1431,-3.1426,-3.1451,-3.1452,-3.145,-3.1428,-3.1459,-3.1472,-3.1574,-3.1649,-3.1503,-3.151,-3.1846,-3.1854,-3.1862,-3.1982,0,0,0,0,0,0,-3.129,-3.1311,-3.1364,-3.1382,-3.1399,-3.1539,-3.1435,-3.1431,-3.1463,-3.1452,-3.1477,-3.1476,-3.1456,-3.1564,-3.1581,-3.1656,-3.1515,-3.184,-3.185,-3.1859,-3.1971,-3.1993,-3.2011,0,0,0,0,0,-3.1283,-3.1396,-3.1367,-3.1385,-3.1465,-3.1543,-3.1553,-3.1527,-3.1469,-3.1523,-3.1523,-3.1476,-3.1638,-3.1576,-3.1594,-3.1672,-3.1835,-3.1847,-3.1858,-3.1962,-3.1989,-3.2011,0,0,0,0,0,0,-3.1389,-3.1398,-3.1366,-3.1488,-3.1515,-3.1528,-3.1594,-3.1556,-3.1601,-3.159,-3.1556,-3.1562,-3.1673,-3.1682,-3.1613,-3.1809,-3.1727,-3.1743,-3.1799,-3.1824,-3.1844,-3.184,-3.1521,0,0,0,0,0,-3.1426,-3.1488,-3.1493,-3.16,-3.1615,-3.1603,-3.1636,-3.1613,-3.1641,-3.1652,-3.166,-3.169,-3.1747,-3.1786,-3.1839,-3.1971,-3.1976,-3.2034,-3.2054,-3.2071,-3.2086,-3.2157,-3.2183,-3.1903,-3.1903,-3.1903,0,0,-3.1504,-3.1517,-3.1558,-3.1621,-3.164,-3.1706,-3.1613,-3.1687,-3.1736,-3.1664,-3.1761,-3.1768,-3.1799,-3.1917,-3.197,-3.1928,-3.2163,-3.2086,-3.2099,-3.2105,-3.2172,-3.2198,-3.2222,-3.1911,-3.191,-3.1909,0,0,-3.168,-3.1696,-3.1787,-3.1807,-3.1836,-3.1827,-3.1849,-3.1867,-3.1869,-3.1965,-3.1913,-3.197,-3.207,-3.2094,-3.2119,-3.2304,-3.2262,-3.2322,-3.2428,-3.2497,-3.2519,-3.2539,-3.2606,-3.263,-3.2336,-3.2337,-3.2337,0,-3.1774,-3.1871,-3.1838,-3.1916,-3.1945,-3.1882,-3.1974,-3.1996,-3.2042,-3.2064,-3.2016,-3.214,-3.2156,-3.2279,-3.2324,-3.2346,-3.2371,-3.232,-3.2519,-3.2538,-3.2555,-3.2619,-3.2644,-3.2344,-3.2343,-3.2342,-3.2341,0,-3.1985,-3.2053,-3.2123,-3.2167,-3.2204,-3.2289,-3.2271,-3.2312,-3.2286,-3.2282,-3.2382,-3.2398,-3.2454,-3.2481,-3.2456,-3.2601,-3.2575,-3.2524,-3.2441,-3.259,-3.2649,-3.2673,-3.2354,-3.2351,-3.2349,-3.2348,0,0,-3.2231,-3.2256,-3.2282,-3.2302,-3.2329,-3.2381,-3.2463,-3.2516,-3.2553,-3.2586,-3.2654,-3.2739,-3.2692,-3.2721,-3.2698,-3.276,-3.2906,-3.2701,-3.2701,-3.2739,-3.3067,-3.3106,-3.3135,-3.2877,-3.2882,-3.2885,-3.3065,0,-3.2407,-3.2548,-3.2521,-3.2658,-3.2721,-3.2661,-3.2732,-3.2757,-3.2755,-3.2808,-3.2806,-3.2868,-3.28,-3.2817,-3.2875,-3.2876,-3.2971,-3.2862,-3.2942,-3.2945,-3.2937,-3.3166,-3.3207,-3.3376,-3.3088,-3.3091,-3.3094,0,-3.2632,-3.2673,-3.2817,-3.2834,-3.2859,-3.2923,-3.297,-3.3021,-3.3048,-3.3042,-3.3074,-3.304,-3.3122,-3.3036,-3.3149,-3.3075,-3.3106,-3.3111,-3.3117,-3.3125,-3.303,-3.3181,-3.3429,-3.3455,-3.313,-3.3127,-3.3125,0,-3.2799,-3.289,-3.2987,-3.3006,-3.3028,-3.3074,-3.3086,-3.3108,-3.3141,-3.3182,-3.3204,-3.3254,-3.3282,-3.3321,-3.3302,-3.3241,-3.3419,-3.3331,-3.3417,-3.3418,-3.3459,-3.3457,-3.3717,-3.3476,-3.3476,-3.3476,-3.3475,0,-3.2999,-3.309,-3.3062,-3.3123,-3.3222,-3.3191,-3.329,-3.3295,-3.3315,-3.3375,-3.3326,-3.3384,-3.3354,-3.341,-3.3395,-3.3491,-3.3504,-3.3502,-3.3497,-3.3507,-3.3508,-3.3528,-3.3516,-3.3482,-3.3481,-3.3479,-3.3478,0,-3.3203,-3.3188,-3.3291,-3.3303,-3.3308,-3.3381,-3.3391,-3.3448,-3.3442,-3.3519,-3.3535,-3.3526,-3.3589,-3.3573,-3.3642,-3.3632,-3.3754,-3.3733,-3.3745,-3.374,-3.3828,-3.382,-3.4112,-3.4148,-3.3883,-3.3885,-3.3887,0,-3.3333,-3.3401,-3.342,-3.3457,-3.3472,-3.3531,-3.3565,-3.3536,-3.3574,-3.3609,-3.3662,-3.372,-3.3766,-3.387,-3.387,-3.3922,-3.3904,-3.4002,-3.3911,-3.3919,-3.3906,-3.3903,-3.391,-3.4021,-3.4024,-3.4026,-3.4028,0,-3.3565,-3.3554,-3.3604,-3.3653,-3.3694,-3.3731,-3.3763,-3.3796,-3.3769,-3.3814,-3.3877,-3.3912,-3.3982,-3.4042,-3.409,-3.4102,-3.4062,-3.4056,-3.4079,-3.4091,-3.4095,-3.4095,-3.3795,-3.405,-3.4048,-3.4047,-3.4045,-3.4044,-3.3737,-3.3795,-3.3817,-3.3875,-3.3895,-3.3926,-3.398,-3.398,-3.4033,-3.4087,-3.4066,-3.414,-3.4164,-3.4225,-3.4243,-3.43,-3.4263,-3.4296,-3.4304,-3.4313,-3.4325,-3.4085,-3.4308,-3.4308,-3.4307,-3.4307,-3.4306,0,-3.3968,-3.3979,-3.4032,-3.4078,-3.4124,-3.408,-3.4113,-3.4154,-3.4219,-3.4245,-3.429,-3.4364,-3.4421,-3.4424,-3.4478,-3.4523,-3.4506,-3.4538,-3.4535,-3.4539,-3.4354,-3.433,-3.4551,-3.4551,-3.4551,-3.4551,-3.4551,-3.4551,-3.4093,-3.4189,-3.4181,-3.4286,-3.4297,-3.4367,-3.439,-3.4419,-3.4439,-3.4523,-3.457,-3.4571,-3.4589,-3.4643,-3.4693,-3.4693,-3.4716,-3.4755,-3.4748,-3.4576,-3.4552,-3.4529,-3.4505,-3.476,-3.4761,-3.4928,-3.493,-3.4931]},{"header":{"parameterUnit":"m.s-1","parameterCategory":1,"la1":30.2991,"la2":30.254,"lo1":-89.0895,"lo2":-89.0444,"dy":0.0017,"dx":0.0017,"nx":28,"ny":28,"refTime":"2025-01-22T03:00:00:Z","depth":0,"parameterNumber":3,"parameterNumberName":"V-component_of_WINDS"},"data":[0,0,0,0,0,0,0,0,0,0,0,0,0,0,0,0,0,0,0,0,0,0,0,0,0,0,0,0,0,0,0,0,0,0,0,0,0,0,0,0,0,0,0,0,0,0,0,0,0,0,0,0,0,0,0,0,0,0,-5.5212,-5.5212,0,-5.527,-5.5271,-5.5271,-5.52,-5.5197,-5.5195,-5.5192,-5.5248,-5.5252,-5.5256,0,0,0,0,0,0,0,0,0,0,0,0,0,-5.5034,-5.5038,-5.5212,-5.5212,-5.5213,-5.527,-5.5271,-5.5271,-5.52,-5.5197,-5.5194,-5.5191,-5.5247,-5.5251,-5.5256,0,0,0,0,0,0,0,0,0,0,0,0,0,-5.5104,-5.5039,-5.5212,-5.5185,-5.5183,-5.527,-5.5271,-5.5272,-5.5201,-5.5197,-5.5193,-5.5189,-5.5245,-5.5251,-5.5257,-5.5372,0,0,-5.5275,-5.5277,0,0,0,0,0,0,0,0,-5.51,-5.511,-5.5188,-5.5187,-5.5185,-5.5224,-5.5228,-5.5305,-5.5202,-5.5194,-5.5192,-5.5188,-5.5243,-5.5249,-5.5268,-5.5374,-5.5377,-5.5275,-5.5279,-5.5281,-5.5283,0,0,0,0,0,0,0,-5.5095,-5.5107,-5.5235,-5.5189,-5.5187,-5.5168,-5.5174,-5.5243,-5.524,-5.5194,-5.5189,-5.5197,-5.5241,-5.5263,-5.5269,-5.5377,-5.5275,-5.528,-5.5284,-5.5286,-5.558,-5.5584,0,0,0,0,0,0,-5.5094,-5.5104,-5.5233,-5.5236,-5.5132,-5.5175,-5.5181,-5.5215,-5.5239,-5.5239,-5.5201,-5.5194,-5.5254,-5.5262,-5.527,-5.5406,-5.5281,-5.5287,-5.529,-5.5575,-5.558,-5.5585,0,0,0,0,0,0,-5.5091,-5.5106,-5.523,-5.5169,-5.5183,-5.5182,-5.5221,-5.5218,-5.524,-5.5244,-5.5242,-5.5224,-5.5252,-5.5262,-5.5347,-5.5407,-5.5289,-5.5295,-5.557,-5.5577,-5.5583,-5.5679,0,0,0,0,0,0,-5.5086,-5.5106,-5.515,-5.517,-5.5187,-5.5308,-5.5225,-5.5222,-5.5251,-5.5242,-5.5265,-5.5264,-5.5249,-5.5339,-5.5353,-5.5413,-5.5299,-5.5565,-5.5573,-5.5581,-5.567,-5.5688,-5.5703,0,0,0,0,0,-5.508,-5.5174,-5.5153,-5.5169,-5.5243,-5.5311,-5.532,-5.5302,-5.5256,-5.53,-5.5302,-5.5264,-5.5398,-5.5348,-5.5363,-5.5426,-5.5561,-5.5571,-5.558,-5.5663,-5.5684,-5.5702,0,0,0,0,0,0,-5.516,-5.5177,-5.5153,-5.5257,-5.5284,-5.5299,-5.5354,-5.5326,-5.5365,-5.5355,-5.5329,-5.5335,-5.5426,-5.5434,-5.5378,-5.5538,-5.5472,-5.5485,-5.5529,-5.555,-5.5566,-5.5561,-5.5304,0,0,0,0,0,-5.519,-5.5246,-5.5256,-5.5347,-5.5362,-5.5356,-5.5385,-5.5369,-5.5395,-5.5405,-5.5413,-5.5439,-5.5486,-5.5518,-5.5563,-5.5671,-5.5674,-5.5722,-5.5738,-5.5751,-5.5763,-5.582,-5.5841,-5.5617,-5.5617,-5.5616,0,0,-5.5252,-5.5268,-5.5305,-5.5364,-5.5382,-5.5439,-5.5366,-5.5429,-5.547,-5.5414,-5.5495,-5.5502,-5.5528,-5.5626,-5.5669,-5.5635,-5.5825,-5.5763,-5.5774,-5.5778,-5.5832,-5.5853,-5.5872,-5.5623,-5.5622,-5.5621,0,0,-5.5395,-5.5413,-5.549,-5.551,-5.554,-5.5535,-5.5554,-5.5574,-5.5577,-5.5658,-5.5617,-5.5665,-5.5748,-5.5768,-5.579,-5.5939,-5.5905,-5.5954,-5.6039,-5.6095,-5.6112,-5.6128,-5.6181,-5.62,-5.5966,-5.5966,-5.5966,0,-5.5468,-5.5553,-5.5533,-5.56,-5.5626,-5.5579,-5.5657,-5.5677,-5.5718,-5.5737,-5.57,-5.5803,-5.5817,-5.5918,-5.5955,-5.5974,-5.5993,-5.5952,-5.6112,-5.6127,-5.6141,-5.6191,-5.6211,-5.5972,-5.5971,-5.597,-5.597,0,-5.5641,-5.5701,-5.576,-5.5803,-5.5836,-5.5908,-5.5897,-5.5933,-5.5914,-5.5913,-5.5995,-5.6011,-5.6057,-5.608,-5.6061,-5.6178,-5.6156,-5.6116,-5.6048,-5.6169,-5.6215,-5.6234,-5.598,-5.5978,-5.5976,-5.5975,0,0,-5.5836,-5.5868,-5.5889,-5.5908,-5.5937,-5.5982,-5.605,-5.6097,-5.6128,-5.6158,-5.6214,-5.6285,-5.6248,-5.6272,-5.6255,-5.6304,-5.6421,-5.6257,-5.6258,-5.6287,-5.655,-5.658,-5.6603,-5.6399,-5.6402,-5.6405,-5.6547,0,-5.5979,-5.6099,-5.6083,-5.6198,-5.6253,-5.6208,-5.6268,-5.6291,-5.6292,-5.6337,-5.6336,-5.6388,-5.6335,-5.6349,-5.6396,-5.6397,-5.6474,-5.6387,-5.6449,-5.6452,-5.6444,-5.6627,-5.666,-5.6793,-5.6566,-5.6569,-5.6571,0,-5.6161,-5.6199,-5.6321,-5.634,-5.6362,-5.6417,-5.6458,-5.6502,-5.6526,-5.6523,-5.655,-5.6525,-5.6591,-5.6523,-5.6615,-5.6556,-5.658,-5.6585,-5.659,-5.6595,-5.6519,-5.6637,-5.6836,-5.6856,-5.6599,-5.6597,-5.6595,0,-5.629,-5.6372,-5.6455,-5.6472,-5.6498,-5.6537,-5.6549,-5.657,-5.6599,-5.6634,-5.6652,-5.6694,-5.6718,-5.675,-5.6736,-5.6688,-5.683,-5.676,-5.6828,-5.6829,-5.686,-5.6858,-5.7065,-5.6876,-5.6876,-5.6876,-5.6875,0,-5.6451,-5.6527,-5.6513,-5.6565,-5.6647,-5.6627,-5.671,-5.6716,-5.6735,-5.6785,-5.6749,-5.6797,-5.6775,-5.6821,-5.6809,-5.6886,-5.6897,-5.6895,-5.6892,-5.6899,-5.6899,-5.6914,-5.6905,-5.6881,-5.688,-5.6879,-5.6878,0,-5.661,-5.6604,-5.6691,-5.6709,-5.6715,-5.6775,-5.6789,-5.6836,-5.6834,-5.6898,-5.6912,-5.6908,-5.696,-5.6949,-5.7005,-5.6998,-5.7094,-5.7079,-5.7087,-5.7083,-5.7151,-5.7145,-5.7375,-5.7404,-5.7197,-5.7199,-5.7201,0,-5.6713,-5.677,-5.6794,-5.6826,-5.6841,-5.6893,-5.6922,-5.6904,-5.6936,-5.6968,-5.7011,-5.706,-5.7098,-5.7183,-5.7184,-5.7227,-5.7212,-5.729,-5.7218,-5.7224,-5.7213,-5.721,-5.7215,-5.7304,-5.7307,-5.7309,-5.731,0,-5.6896,-5.689,-5.6935,-5.6979,-5.7016,-5.7049,-5.7078,-5.7106,-5.709,-5.7128,-5.7181,-5.7211,-5.7269,-5.7318,-5.7357,-5.7368,-5.7336,-5.7333,-5.735,-5.7358,-5.736,-5.736,-5.7125,-5.7327,-5.7326,-5.7324,-5.7323,-5.7323,-5.7029,-5.7078,-5.7103,-5.7153,-5.7174,-5.7203,-5.7248,-5.7252,-5.7296,-5.7343,-5.7329,-5.739,-5.7412,-5.7462,-5.7477,-5.7523,-5.7494,-5.752,-5.7526,-5.7533,-5.7541,-5.7353,-5.753,-5.753,-5.7529,-5.7529,-5.7528,0,-5.721,-5.7224,-5.7271,-5.7314,-5.7354,-5.7322,-5.7353,-5.7388,-5.7442,-5.7466,-5.7505,-5.7566,-5.7612,-5.7618,-5.7661,-5.7697,-5.7684,-5.7709,-5.7706,-5.7709,-5.7565,-5.7545,-5.7719,-5.7719,-5.7719,-5.7719,-5.7719,-5.7719,-5.7309,-5.739,-5.7387,-5.7477,-5.7489,-5.755,-5.757,-5.7595,-5.7614,-5.7685,-5.7724,-5.7727,-5.7744,-5.7788,-5.7829,-5.7829,-5.7847,-5.7878,-5.7873,-5.7738,-5.7719,-5.7701,-5.7682,-5.7882,-5.7882,-5.8012,-5.8014,-5.8015]}]]